Location: Doschendorf
(50.0069°N, 11.0602°E)
Time: 03:14:27
(UTC+00:00)

USA 238 DEB - Pass Details

Date: 17 November 2019
Orbit: 1024 x 1188 km, 63.4° (Epoch: 29 November)

Event Time Altitude Azimuth Distance (km) Brightness Sun altitude
Rises 19:15:03 0° 316° (NW) 3,929 7.4 -35.9°
Reaches altitude 10° 19:17:41 10° 316° (NW) 2,992 6.6 -36.3°
Enters shadow 19:23:08 56° 307° (NW) 1,336 4.3 -37.1°
